Weather History for Evergreen, AL

Change the Weather History Date:

Saturday, December 28, 2013

  Actual Average (KPRN) Record (KPRN)
Temperature  
Mean Temperature 47 °F -  
Max Temperature 50 °F 62 °F 80 °F (1984)
Min Temperature 44 °F 38 °F 19 °F (2010)
Degree Days  
Heating Degree Days 18    
Moisture  
Dew Point 43 °F    
Average Humidity 88    
Maximum Humidity 93    
Minimum Humidity 54    
Precipitation  
Precipitation 2.11 in - - ()
Sea Level Pressure  
Sea Level Pressure 30.12 in    
Wind  
Wind Speed 7 mph (NE)    
Max Wind Speed 12 mph    
Max Gust Speed 21 mph    
Visibility 4 miles    
Events Rain    
Averages and records for this station are not official NWS values.
T = Trace of Precipitation, MM = Missing Value Source: NWS Daily Summary

Daily Weather History Graph

Daily Weather History Graph

Search for Another Location

Airport:

Trip Planner

Search our weather history database for the weather conditions in past years. The results will help you decide how hot, cold, wet, or windy it might be!

Date:

Astronomy

Dec. 28, 2013 Rise Set
Actual Time 6:46 AM CST 4:53 PM CST
Civil Twilight 6:19 AM CST 5:20 PM CST
Nautical Twilight 5:49 AM CST 5:50 PM CST
Astronomical Twilight 5:19 AM CST 6:20 PM CST
Moon 2:31 AM CST (12/28) 1:37 PM CST (12/28)
Length of Visible Light 11h 00m
Length of Day
10h 07m
Waning Crescent, 19% of the Moon is Illuminated
Dec 28
Waning Crescent
Jan 1
New
Jan 7
First Quarter
Jan 15
Full
Jan 23
Last Quarter

Hourly Weather History & Observations

Time (CST) Temp. Windchill Dew Point Humidity Pressure Visibility Wind Dir Wind Speed Gust Speed Precip Events Conditions
12:53 AM 50.0 °F - 34.0 °F 54% 30.31 in 10.0 mi Variable 6.9 mph - N/A   Overcast
1:53 AM 48.9 °F - 36.0 °F 61% 30.30 in 10.0 mi NE 6.9 mph - 0.00 in Rain Light Rain
2:53 AM 48.0 °F - 36.0 °F 63% 30.27 in 8.0 mi NE 5.8 mph - 0.00 in Rain Light Rain
3:21 AM 46.0 °F 43.9 °F 39.0 °F 76% 30.27 in 8.0 mi NE 4.6 mph - 0.01 in Rain Light Rain
3:53 AM 45.0 °F 42.6 °F 39.9 °F 82% 30.27 in 9.0 mi NE 4.6 mph - 0.01 in   Overcast
4:40 AM 45.0 °F 41.8 °F 41.0 °F 86% 30.26 in 2.5 mi NE 5.8 mph - 0.05 in Rain Rain
4:50 AM 44.6 °F 40.7 °F 42.8 °F 93% 30.26 in 4.0 mi NE 6.9 mph - 0.07 in Rain Light Rain
4:53 AM 45.0 °F 41.8 °F 42.1 °F 90% 30.26 in 4.0 mi NE 5.8 mph - 0.07 in Rain Light Rain
5:10 AM 45.0 °F 41.2 °F 42.1 °F 90% 30.25 in 4.0 mi NE 6.9 mph - 0.01 in Rain Light Rain
5:34 AM 45.0 °F 41.8 °F 42.1 °F 90% 30.25 in 4.0 mi ENE 5.8 mph - 0.03 in Rain Light Rain
5:49 AM 44.6 °F 40.2 °F 42.8 °F 93% 30.25 in 2.5 mi ENE 8.1 mph - 0.04 in Rain Light Rain
5:53 AM 45.0 °F 41.8 °F 42.1 °F 90% 30.25 in 2.5 mi NE 5.8 mph - 0.04 in Rain Light Rain
6:00 AM 45.0 °F 41.8 °F 42.1 °F 90% 30.26 in 3.0 mi ENE 5.8 mph - 0.01 in Rain Light Rain
6:08 AM 45.0 °F 40.6 °F 42.1 °F 90% 30.26 in 2.5 mi East 8.1 mph - 0.02 in Rain Light Rain
6:28 AM 45.0 °F 40.6 °F 42.1 °F 90% 30.26 in 1.8 mi ENE 8.1 mph - 0.07 in Rain Heavy Rain
6:37 AM 45.0 °F 41.2 °F 42.1 °F 90% 30.26 in 2.0 mi NE 6.9 mph - 0.10 in Rain Rain
6:53 AM 45.0 °F 41.2 °F 42.1 °F 90% 30.27 in 2.0 mi ENE 6.9 mph - 0.13 in Rain Rain
7:44 AM 45.0 °F 41.8 °F 42.1 °F 90% 30.27 in 4.0 mi NNE 5.8 mph - 0.18 in Rain Rain
7:53 AM 45.0 °F 41.8 °F 42.1 °F 90% 30.27 in 4.0 mi North 5.8 mph - 0.21 in Rain Rain
8:36 AM 45.0 °F 40.1 °F 42.1 °F 90% 30.26 in 3.0 mi NNE 9.2 mph - 0.13 in Rain Rain
8:53 AM 45.0 °F 40.1 °F 42.1 °F 90% 30.26 in 3.0 mi NE 9.2 mph - 0.17 in Rain Rain
9:16 AM 46.0 °F 40.6 °F 42.1 °F 86% 30.25 in 5.0 mi ENE 11.5 mph 20.7 mph 0.04 in Rain Rain
9:27 AM 46.0 °F 41.0 °F 43.0 °F 89% 30.24 in 6.0 mi NE 10.4 mph - 0.05 in Rain Rain
9:53 AM 46.0 °F 42.5 °F 43.0 °F 89% 30.24 in 4.0 mi NE 6.9 mph 18.4 mph 0.08 in Rain Light Rain
10:25 AM 46.9 °F - 43.0 °F 86% 30.23 in 3.0 mi ENE 9.2 mph - 0.04 in Rain Rain
10:35 AM 46.0 °F 42.5 °F 43.0 °F 89% 30.22 in 2.0 mi ENE 6.9 mph - 0.08 in Rain Heavy Rain
10:53 AM 46.0 °F 41.9 °F 43.0 °F 89% 30.21 in 2.0 mi ENE 8.1 mph - 0.14 in Rain Heavy Rain
11:19 AM 46.0 °F 41.4 °F 43.0 °F 89% 30.18 in 3.0 mi ENE 9.2 mph - 0.08 in Rain Rain
11:26 AM 46.0 °F 41.9 °F 43.0 °F 89% 30.17 in 2.5 mi NE 8.1 mph - 0.10 in Rain Heavy Rain
11:40 AM 46.0 °F 42.5 °F 43.0 °F 89% 30.16 in 3.0 mi ENE 6.9 mph - 0.14 in Rain Rain
11:53 AM 46.0 °F 42.5 °F 43.0 °F 89% 30.15 in 3.0 mi ENE 6.9 mph - 0.16 in Rain Rain
12:10 PM 46.0 °F 41.9 °F 43.0 °F 89% 30.14 in 2.5 mi ENE 8.1 mph - 0.06 in Rain Heavy Rain
12:21 PM 46.0 °F 41.4 °F 43.0 °F 89% 30.12 in 3.0 mi ENE 9.2 mph - 0.09 in Rain Rain
12:53 PM 46.9 °F - 43.0 °F 86% 30.09 in 4.0 mi ENE 9.2 mph - 0.15 in Rain Rain
1:53 PM 46.9 °F - 44.1 °F 90% 30.05 in 6.0 mi ENE 4.6 mph - 0.05 in Rain Rain
2:46 PM 46.9 °F - 44.1 °F 90% 30.03 in 2.5 mi East 8.1 mph - 0.11 in Rain Heavy Rain
2:53 PM 46.9 °F - 44.1 °F 90% 30.02 in 1.8 mi ENE 5.8 mph - 0.17 in Rain Heavy Rain
3:03 PM 46.9 °F - 44.1 °F 90% 30.02 in 2.0 mi Variable 4.6 mph - 0.07 in Rain Heavy Rain
3:25 PM 46.0 °F 42.5 °F 44.1 °F 93% 30.00 in 2.5 mi NE 6.9 mph - 0.26 in Rain Heavy Rain
3:34 PM 46.0 °F 42.5 °F 44.1 °F 93% 29.99 in 3.0 mi NE 6.9 mph - 0.31 in Rain Heavy Rain
3:41 PM 46.0 °F 41.9 °F 44.1 °F 93% 29.98 in 2.5 mi ENE 8.1 mph - 0.35 in Rain Heavy Rain
3:53 PM 46.9 °F - 44.1 °F 90% 29.99 in 3.0 mi ENE 10.4 mph - 0.39 in Rain Rain
4:00 PM 46.9 °F - 44.1 °F 90% 29.98 in 2.0 mi NE 6.9 mph - 0.05 in Rain Heavy Rain
4:16 PM 46.9 °F - 44.1 °F 90% 29.98 in 1.5 mi East 8.1 mph - 0.14 in Rain Rain
4:24 PM 46.9 °F - 44.1 °F 90% 29.97 in 2.5 mi East 11.5 mph - 0.18 in Rain Heavy Rain
4:45 PM 46.9 °F - 44.1 °F 90% 29.98 in 6.0 mi East 6.9 mph - 0.23 in Rain Light Rain
4:53 PM 46.9 °F - 44.1 °F 90% 29.98 in 10.0 mi East 4.6 mph - 0.23 in Rain Light Rain
5:36 PM 46.9 °F - 45.0 °F 93% 29.98 in 2.5 mi NNW 5.8 mph - 0.08 in Rain Heavy Rain
5:44 PM 46.9 °F - 45.0 °F 93% 29.99 in 5.0 mi NW 4.6 mph - 0.08 in Rain Light Rain
5:53 PM 46.9 °F - 45.0 °F 93% 30.01 in 4.0 mi Variable 3.5 mph - 0.10 in Rain Light Rain
6:01 PM 46.9 °F - 45.0 °F 93% 30.00 in 7.0 mi Calm Calm - 0.00 in Rain Light Rain
6:53 PM 46.9 °F - 44.1 °F 90% 29.99 in 10.0 mi North 4.6 mph - 0.00 in   Overcast
7:53 PM 46.9 °F - 44.1 °F 90% 29.99 in 10.0 mi NNW 4.6 mph - N/A   Overcast
8:19 PM 46.9 °F - 44.1 °F 90% 29.97 in 10.0 mi NNE 4.6 mph - N/A   Overcast
8:43 PM 46.9 °F - 44.1 °F 90% 29.98 in 10.0 mi North 3.5 mph - N/A   Overcast
8:53 PM 46.9 °F - 44.1 °F 90% 29.97 in 10.0 mi NNW 4.6 mph - N/A   Overcast
9:50 PM 46.4 °F 44.3 °F 44.6 °F 93% 29.96 in 3.0 mi NW 4.6 mph - 0.00 in   Overcast
9:53 PM 46.9 °F - 44.1 °F 90% 29.96 in 3.0 mi NW 3.5 mph - 0.00 in   Overcast
10:13 PM 46.9 °F - 44.1 °F 90% 29.95 in 2.5 mi NNW 5.8 mph - 0.00 in   Overcast
10:53 PM 46.9 °F - 44.1 °F 90% 29.95 in 2.0 mi NNW 5.8 mph - 0.01 in   Overcast
11:34 PM 46.0 °F 43.9 °F 44.1 °F 93% 29.91 in 3.0 mi North 4.6 mph - N/A   Overcast
11:53 PM 46.0 °F 43.9 °F 44.1 °F 93% 29.93 in 6.0 mi NW 4.6 mph - N/A   Overcast